Flag for Germany Weather past 2 weeks in Neuwied, Rhineland-Palatinate, Germany

Now
48 °F

Cool.


Feels Like: 46 °F
Forecast: 42 / 64 °F
Wind: 5 mph from East

Location: Buechel

Current Time: Sep 23, 2014 at 11:32:30 PM

Latest Report: Sep 23, 2014 at 10:20 PM


Visibility: N/A

Pressure: 30.07 "Hg

Humidity: 76%

Dew point: 41 °F

Location of NeuwiedLocation

Historic Weather in Neuwied — Graph

°F

Neuwied temperature yesterday

Maximum temperature yesterday: 55 °F (at 2:20 PM)
Minimum temperature yesterday: 43 °F (at 11:20 PM)
Average temperature yesterday: 49 °F

Past Weeks' High & Low Weather Summary

 TemperatureHumidityPressure
High73 °F (Sep 18, 5:20 PM)100% (Sep 15, 5:20 AM)30.21 "Hg (Sep 15, 5:20 AM)
Low41 °F (Sep 23, 4:20 AM)52% (Sep 12, 3:20 PM)29.86 "Hg (Sep 18, 6:20 AM)
Average57 °F83%30.05 "Hg
* Reported Sep 8 10:20 PM — Sep 23 10:20 PM, Neuwied, Weather by CustomWeather, © 2014

Note: Actual official high and low records may vary slightly from our data, if they occured in-between our weather recording intervals... More about our weather records

Advertising

Neuwied weather history for previous 24 hours

 ConditionsComfort  
Time TempWeatherWind HumidityBarometerVisibility
10:20 PM
Sep 23
48 °FCool.5 mph76%30.07 "HgN/A
9:45 PM48 °FPassing clouds.5 mph76%30.07 "HgN/A
9:20 PM50 °FPassing clouds.6 mph71%30.09 "HgN/A
8:20 PM50 °FScattered clouds.5 mph71%30.09 "HgN/A
7:20 PM52 °FScattered clouds.5 mph67%30.09 "HgN/A
6:20 PM54 °FPassing clouds.5 mph63%30.09 "HgN/A
5:20 PM55 °FPassing clouds.3 mph59%30.09 "HgN/A
4:20 PM55 °FScattered clouds.2 mph59%30.12 "HgN/A
3:20 PM54 °FScattered clouds.3 mph58%30.12 "HgN/A
2:20 PM52 °FScattered clouds.7 mph62%30.15 "HgN/A
1:20 PM52 °FScattered clouds.5 mph67%30.15 "HgN/A
12:20 PM52 °FScattered clouds.6 mph77%30.18 "Hg6 mi
11:20 AM50 °FBroken clouds.2 mph76%30.18 "Hg5 mi
10:20 AM48 °FBroken clouds.5 mph87%30.18 "Hg4 mi
9:20 AM46 °FFog.5 mph87%30.18 "Hg3 mi
8:20 AM43 °FFog.5 mph93%30.18 "Hg3 mi
7:20 AM41 °FFog.6 mph100%30.18 "Hg3 mi
6:20 AM41 °FFog.6 mph100%30.18 "Hg2 mi
5:20 AM41 °FFog.6 mph100%30.15 "Hg2 mi
4:20 AM41 °FFog.6 mph100%30.15 "Hg3 mi
3:20 AM43 °FQuite cool.5 mph93%30.15 "Hg6 mi
2:20 AM43 °FQuite cool.5 mph93%30.18 "HgN/A
1:20 AM43 °FQuite cool.7 mph93%30.18 "HgN/A
12:20 AM45 °FQuite cool.5 mph87%30.18 "HgN/A
11:20 PM
Sep 22
43 °FQuite cool.3 mph93%30.15 "HgN/A
Weather by CustomWeather, © 2014

See weather overviewHow to use our weather pages